Accueil
METAR-TAF:

METAR-TAF

Aéroports :

Aéroport de Lyon-Bron

Lyon, France

latitude: 45-43N, longitude: 004-57E, altitude: 200 m

Observation

Le bulletin a été fait il y a 31 minutes, à 00:00 UTC
Vent 3 kt de direction variable
Température 22°C
Humidité 65%
Pression 1018 hPa
Visibilité 10 km ou plus
pas de nuages en-dessous de 1500 mètres et pas de cumulonimbus.

METAR: LFLY 210000Z AUTO VRB03KT CAVOK 22/15 Q1018 NOSIG

Heure: 02:31 (00:31 UTC)

Prévision

Le bulletin a été fait il y a 1 heure et 31 minutes, à 23:00 UTC
Prévision valable du 21 à 00 UTC au 21 à 24 UTC
Vent 2 kt de direction variable
Visibilité 10 km ou plus
pas de nuages en-dessous de 1500 mètres et pas de cumulonimbus.
Evoluant progressivement
du 21 à 08 UTC au 21 à 11 UTC
Vent 13 kt de nord

TAF: LFLY 202300Z 2100/2124 VRB02KT CAVOK BECMG 2108/2111 36013KT

Observations et prévisions météorologiques de plus de 4000 aéroports (messages METAR et TAF).

Les stations disponibles sont représentées par des disques jaunes et rouges sur la carte.

Passer la souris dessus pour voir le nom de la station.

Cliquer dessus pour voir les observations et prévisions météorologiques.

Pour changer de carte: cliquez sur les boutons verts avec une croix noire pour zoomer, sur le bouton vert avec un tiret pour effectuer un zoom arrière, ou sur les flèches vertes pour les cartes adjacentes.


METAR-TAF: